• In Kazakhstan
  • List of Countries
  • For 7 days
  • Water Temperature
  • Satellite Maps
  • Weather Map
  • News
  • Weather Widgets
  • user-avatar
    Login

    Hourly Weather Sumgayit

    Today, 19 April, Friday

    Time Temperature Precipitation Wind Pressure Humidity
    00:00 +5°C° 0 mm 9 mps 742 mmHg 71%
    01:00 +5°C° 0 mm 9 mps 742 mmHg 72%
    02:00 +5°C° 0 mm 8 mps 742 mmHg 73%
    03:00 +5°C° 0 mm 9 mps 741 mmHg 75%
    04:00 +3°C° 0 mm 9 mps 741 mmHg 76%
    05:00 +3°C° 0 mm 9 mps 742 mmHg 76%
    06:00 +3°C° 0 mm 9 mps 742 mmHg 77%
    07:00 +3°C° 0.1 mm 9 mps 742 mmHg 77%
    08:00 +5°C° 0.1 mm 9 mps 742 mmHg 78%
    09:00 +5°C° 0 mm 9 mps 742 mmHg 76%
    10:00 +5°C° 0.1 mm 9 mps 742 mmHg 75%
    11:00 +6°C° 0.1 mm 9 mps 742 mmHg 73%
    12:00 +6°C° 0.1 mm 9 mps 742 mmHg 72%
    13:00 +6°C° 0 mm 9 mps 742 mmHg 72%
    14:00 +5°C° 0 mm 9 mps 742 mmHg 72%
    15:00 +5°C° 0 mm 9 mps 742 mmHg 72%
    16:00 +5°C° 0 mm 9 mps 742 mmHg 73%
    17:00 +3°C° 0 mm 9 mps 742 mmHg 75%
    18:00 +3°C° 0 mm 10 mps 742 mmHg 77%
    19:00 +3°C° 0.3 mm 10 mps 742 mmHg 77%
    20:00 +3°C° 0.3 mm 10 mps 742 mmHg 77%
    21:00 +2°C° 0.3 mm 10 mps 742 mmHg 77%
    22:00 +2°C° 0.4 mm 10 mps 742 mmHg 77%
    23:00 +2°C° 0.4 mm 10 mps 742 mmHg 77%

    Tomorrow, 20 April, Saturday

    Time Temperature Precipitation Wind Pressure Humidity
    00:00 +2°C° 0.4 mm 11 mps 742 mmHg 77%
    01:00 +2°C° 0.1 mm 10 mps 742 mmHg 77%
    02:00 +2°C° 0.1 mm 10 mps 742 mmHg 77%
    03:00 +2°C° 0.1 mm 10 mps 742 mmHg 77%
    04:00 +2°C° 0.1 mm 10 mps 741 mmHg 77%
    05:00 +2°C° 0.1 mm 10 mps 741 mmHg 77%
    06:00 +2°C° 0.1 mm 10 mps 741 mmHg 77%
    07:00 +2°C° 0.6 mm 10 mps 741 mmHg 77%
    08:00 +2°C° 0.6 mm 10 mps 742 mmHg 76%
    09:00 +2°C° 0.6 mm 10 mps 742 mmHg 75%
    10:00 +3°C° 0.5 mm 10 mps 742 mmHg 73%
    11:00 +3°C° 0.5 mm 10 mps 742 mmHg 72%
    12:00 +5°C° 0.5 mm 10 mps 742 mmHg 70%
    13:00 +5°C° 0 mm 10 mps 742 mmHg 68%
    14:00 +6°C° 0 mm 10 mps 743 mmHg 66%
    15:00 +7°C° 0 mm 10 mps 743 mmHg 64%
    16:00 +6°C° 0 mm 10 mps 743 mmHg 67%
    17:00 +5°C° 0 mm 9 mps 743 mmHg 70%
    18:00 +5°C° 0 mm 9 mps 743 mmHg 72%
    19:00 +4°C° 0 mm 8 mps 744 mmHg 73%
    20:00 +4°C° 0 mm 8 mps 744 mmHg 74%
    21:00 +4°C° 0 mm 7 mps 745 mmHg 75%
    22:00 +4°C° 0 mm 6 mps 744 mmHg 75%
    23:00 +3°C° 0 mm 6 mps 744 mmHg 74%

    Day after tomorrow, 21 April, Sunday

    Time Temperature Precipitation Wind Pressure Humidity
    00:00 +3°C° 0 mm 5 mps 744 mmHg 74%
    01:00 +3°C° 0 mm 5 mps 744 mmHg 74%
    02:00 +3°C° 0 mm 5 mps 744 mmHg 73%
    03:00 +4°C° 0 mm 4 mps 744 mmHg 73%
    04:00 +4°C° 0 mm 4 mps 744 mmHg 72%
    05:00 +4°C° 0 mm 4 mps 744 mmHg 71%
    06:00 +4°C° 0 mm 4 mps 744 mmHg 71%
    07:00 +5°C° 0 mm 4 mps 744 mmHg 66%
    08:00 +7°C° 0 mm 5 mps 745 mmHg 61%
    09:00 +8°C° 0 mm 5 mps 745 mmHg 56%
    10:00 +9°C° 0 mm 5 mps 745 mmHg 55%
    11:00 +9°C° 0 mm 5 mps 745 mmHg 54%
    12:00 +10°C° 0 mm 5 mps 745 mmHg 53%
    13:00 +10°C° 0 mm 6 mps 744 mmHg 55%
    14:00 +10°C° 0 mm 6 mps 744 mmHg 56%
    15:00 +10°C° 0 mm 6 mps 744 mmHg 58%
    16:00 +10°C° 0 mm 6 mps 744 mmHg 62%
    17:00 +9°C° 0 mm 6 mps 744 mmHg 65%
    18:00 +8°C° 0 mm 6 mps 744 mmHg 68%
    19:00 +8°C° 0 mm 5 mps 744 mmHg 69%
    20:00 +7°C° 0 mm 5 mps 744 mmHg 70%
    21:00 +7°C° 0 mm 5 mps 745 mmHg 71%
    22:00 +7°C° 0 mm 4 mps 745 mmHg 72%
    23:00 +6°C° 0 mm 4 mps 744 mmHg 72%

    22 April, Monday

    Time Temperature Precipitation Wind Pressure Humidity
    00:00 +6°C° 0 mm 4 mps 744 mmHg 73%
    01:00 +6°C° 0 mm 4 mps 744 mmHg 72%
    02:00 +6°C° 0 mm 4 mps 744 mmHg 71%
    03:00 +6°C° 0 mm 4 mps 743 mmHg 70%
    04:00 +6°C° 0 mm 5 mps 743 mmHg 68%
    05:00 +6°C° 0 mm 5 mps 743 mmHg 67%
    06:00 +5°C° 0 mm 6 mps 743 mmHg 66%
    07:00 +7°C° 0 mm 6 mps 744 mmHg 63%
    08:00 +8°C° 0 mm 7 mps 744 mmHg 61%
    09:00 +9°C° 0 mm 8 mps 744 mmHg 58%
    10:00 +10°C° 0 mm 8 mps 744 mmHg 58%
    11:00 +10°C° 0 mm 8 mps 744 mmHg 58%
    12:00 +11°C° 0 mm 9 mps 744 mmHg 57%
    13:00 +11°C° 0 mm 9 mps 744 mmHg 57%
    14:00 +11°C° 0 mm 9 mps 743 mmHg 57%
    15:00 +11°C° 0 mm 10 mps 743 mmHg 56%
    16:00 +9°C° 0 mm 10 mps 743 mmHg 56%
    17:00 +9°C° 0 mm 11 mps 743 mmHg 55%
    18:00 +8°C° 0 mm 12 mps 743 mmHg 54%
    19:00 +8°C° 0.1 mm 12 mps 743 mmHg 53%
    20:00 +7°C° 0.1 mm 12 mps 743 mmHg 53%
    21:00 +7°C° 0.1 mm 12 mps 744 mmHg 52%
    22:00 +7°C° 0.3 mm 12 mps 744 mmHg 51%
    23:00 +7°C° 0.3 mm 13 mps 743 mmHg 51%

    23 April, Tuesday

    Time Temperature Precipitation Wind Pressure Humidity
    00:00 +7°C° 0.3 mm 13 mps 743 mmHg 50%
    01:00 +7°C° 0.7 mm 13 mps 743 mmHg 50%
    02:00 +5°C° 0.7 mm 14 mps 743 mmHg 50%
    03:00 +5°C° 0.7 mm 14 mps 743 mmHg 49%
    04:00 +7°C° 0.9 mm 13 mps 744 mmHg 50%
    05:00 +7°C° 0.9 mm 12 mps 744 mmHg 50%
    06:00 +7°C° 0.9 mm 11 mps 744 mmHg 50%
    07:00 +7°C° 0.3 mm 12 mps 745 mmHg 50%
    08:00 +7°C° 0.3 mm 13 mps 745 mmHg 50%
    09:00 +8°C° 0.3 mm 14 mps 746 mmHg 51%
    10:00 +8°C° 0.2 mm 13 mps 746 mmHg 50%
    11:00 +8°C° 0.2 mm 13 mps 746 mmHg 49%
    12:00 +9°C° 0.2 mm 12 mps 746 mmHg 48%
    13:00 +9°C° 0 mm 12 mps 747 mmHg 47%
    14:00 +9°C° 0 mm 11 mps 747 mmHg 46%
    15:00 +9°C° 0 mm 11 mps 747 mmHg 45%
    16:00 +9°C° 0 mm 10 mps 747 mmHg 46%
    17:00 +10°C° 0 mm 9 mps 747 mmHg 47%
    18:00 +9°C° 0 mm 8 mps 747 mmHg 49%
    19:00 +9°C° 0 mm 7 mps 748 mmHg 52%
    20:00 +9°C° 0 mm 6 mps 748 mmHg 55%
    21:00 +8°C° 0 mm 5 mps 748 mmHg 58%
    22:00 +8°C° 0 mm 5 mps 748 mmHg 61%
    23:00 +7°C° 0 mm 4 mps 748 mmHg 63%

    24 April, Wednesday

    Time Temperature Precipitation Wind Pressure Humidity
    00:00 +7°C° 0 mm 4 mps 748 mmHg 65%
    01:00 +7°C° 0 mm 4 mps 748 mmHg 64%
    02:00 +7°C° 0 mm 4 mps 748 mmHg 63%
    03:00 +7°C° 0 mm 3 mps 748 mmHg 62%
    04:00 +8°C° 0 mm 3 mps 748 mmHg 61%
    05:00 +8°C° 0 mm 3 mps 749 mmHg 60%
    06:00 +8°C° 0 mm 3 mps 749 mmHg 58%
    07:00 +9°C° 0 mm 3 mps 749 mmHg 52%
    08:00 +11°C° 0 mm 4 mps 749 mmHg 45%
    09:00 +12°C° 0 mm 4 mps 749 mmHg 39%
    10:00 +12°C° 0 mm 4 mps 749 mmHg 39%
    11:00 +13°C° 0 mm 4 mps 749 mmHg 38%
    12:00 +14°C° 0 mm 4 mps 749 mmHg 38%
    13:00 +13°C° 0 mm 4 mps 749 mmHg 38%
    14:00 +13°C° 0 mm 4 mps 748 mmHg 39%
    15:00 +13°C° 0 mm 5 mps 748 mmHg 40%
    16:00 +13°C° 0 mm 4 mps 748 mmHg 40%
    17:00 +12°C° 0 mm 4 mps 749 mmHg 40%
    18:00 +12°C° 0 mm 3 mps 749 mmHg 40%
    19:00 +13°C° 0 mm 2 mps 749 mmHg 42%
    20:00 +12°C° 0 mm 2 mps 749 mmHg 45%
    21:00 +12°C° 0 mm 1 mps 749 mmHg 47%
    22:00 +11°C° 0 mm 1 mps 749 mmHg 50%
    23:00 +11°C° 0 mm 1 mps 749 mmHg 52%
    Show more